Hatteras, NC

6:29 AM EST on December 11, 2019 (GMT -0500)
Mitchell

Weather History for KHSE - November, 2019

Change the Weather History Date:

Friday, November 22, 2019

  Actual Average Record
Temperature  
Mean Temperature 56 °F 56 °F  
Max Temperature 65 °F 62 °F 78 °F (1985)
Min Temperature 48 °F 50 °F 28 °F (1987)
Degree Days  
Heating Degree Days 8 10  
Month to date heating degree days 179 156  
Since 1 July heating degree days 198 231  
Cooling Degree Days 0 1  
Month to date cooling degree days 10 22  
Year to date cooling degree days 2285 1712  
Growing Degree Days 6 (Base 50)    
Moisture  
Dew Point 50 °F    
Average Humidity 75    
Maximum Humidity 84    
Minimum Humidity 56    
Precipitation  
Precipitation 0.00 in 0.15 in 2.89 in (1924)
Month to date precipitation 5.16 3.76  
Year to date precipitation 53.28 52.58  
Snow  
Snow 0.00 in - - ()
Month to date snowfall 0.0  
Since 1 July snowfall 0.0  
Snow Depth 0.00 in    
Sea Level Pressure  
Sea Level Pressure 30.04 in    
Wind  
Wind Speed 6 mph ()    
Max Wind Speed 14 mph    
Max Gust Speed 24 mph    
Visibility 10.0 miles    
Events      
T = Trace of Precipitation, MM = Missing Value Source: Averaged Metar Reports

Daily Weather History Graph

Daily Weather History Graph

Search for Another Location

Airport or City:

Astronomy

Nov. 22, 2019 Rise Set
Actual Time 6:44 AM EST 4:52 PM EST
Civil Twilight 6:16 AM EST 5:20 PM EST
Nautical Twilight 5:45 AM EST 5:51 PM EST
Astronomical Twilight 5:15 AM EST 6:21 PM EST
Moon 2:00 AM EST (11/22) 2:40 PM EST (11/22)
Length of Visible Light 11h 03m
Length of Day
10h 08m
Waning Crescent, 20% of the Moon is Illuminated
Nov 22
Waning Crescent
Nov 26
New
Dec 4
First Quarter
Dec 12
Full
Dec 18
Last Quarter

Hourly Weather History & Observations

Time (EST) Temp. Dew Point Humidity Pressure Visibility Wind Dir Wind Speed Gust Speed Precip Events Conditions
12:51 AM 52.0 °F 41.0 °F 66% 30.16 in 10.0 mi WSW 5.8 mph - N/A   Clear
1:51 AM 50.0 °F 43.0 °F 77% 30.14 in 10.0 mi West 4.6 mph - N/A   Clear
2:51 AM 50.0 °F 44.1 °F 80% 30.14 in 10.0 mi West 4.6 mph - N/A   Partly Cloudy
3:51 AM 52.0 °F 46.0 °F 80% 30.11 in 10.0 mi West 4.6 mph - N/A   Clear
4:51 AM 54.0 °F 48.0 °F 80% 30.09 in 10.0 mi WSW 6.9 mph - N/A   Clear
5:51 AM 54.0 °F 48.9 °F 83% 30.09 in 10.0 mi WSW 5.8 mph - N/A   Clear
6:51 AM 55.0 °F 46.0 °F 72% 30.09 in 10.0 mi West 8.1 mph - N/A   Mostly Cloudy
7:51 AM 57.0 °F 48.0 °F 72% 30.09 in 10.0 mi West 8.1 mph - N/A   Clear
8:51 AM 57.9 °F 48.9 °F 72% 30.07 in 10.0 mi WSW 8.1 mph 17.3 mph N/A   Clear
9:51 AM 62.1 °F 51.1 °F 67% 30.07 in 10.0 mi WSW 13.8 mph - N/A   Clear
10:51 AM 61.0 °F 52.0 °F 72% 30.06 in 10.0 mi WSW 11.5 mph 20.7 mph N/A   Clear
11:51 AM 64.0 °F 53.1 °F 67% 30.04 in 10.0 mi North - - N/A   Clear
12:51 PM 64.9 °F 48.9 °F 56% 30.01 in 10.0 mi North - - N/A   Partly Cloudy
1:51 PM 62.1 °F 52.0 °F 70% 30.00 in 10.0 mi North - - N/A   Overcast
2:51 PM 62.1 °F 54.0 °F 75% 29.96 in 10.0 mi North - - N/A   Clear
3:51 PM 62.1 °F 54.0 °F 75% 29.96 in 10.0 mi North - - N/A   Partly Cloudy
4:51 PM 62.1 °F 55.0 °F 78% 29.94 in 10.0 mi WSW 12.7 mph 20.7 mph N/A   Clear
5:51 PM 62.1 °F 55.0 °F 78% 29.95 in 10.0 mi WSW 12.7 mph 20.7 mph N/A   Clear
6:51 PM 62.1 °F 54.0 °F 75% 29.99 in 10.0 mi West 8.1 mph 24.2 mph N/A   Clear
7:51 PM 59.0 °F 54.0 °F 83% 30.01 in 10.0 mi West 8.1 mph - N/A   Clear
8:51 PM 59.0 °F 54.0 °F 83% 30.01 in 10.0 mi WSW 5.8 mph - N/A   Clear
9:51 PM 59.0 °F 53.1 °F 81% 30.01 in 10.0 mi West 5.8 mph - N/A   Mostly Cloudy
10:51 PM 59.0 °F 53.1 °F 81% 30.02 in 10.0 mi West 4.6 mph - N/A   Overcast
11:51 PM 57.9 °F 53.1 °F 84% 30.02 in 10.0 mi West 4.6 mph - N/A   Clear